Location: Mohawk View
(42.7837°N, 73.7885°W)
Time: 01:29:39
(UTC+00:00)

Cosmos 921 Rocket - Pass Details

Date: 17 June 2021
Orbit: 571 x 632 km, 75.8° (Epoch: 02 August)

Event Time Altitude Azimuth Distance (km) Brightness Sun altitude
Exits shadow 07:24:20 27° 232° (SW) 1,115 3.8 -15.5°
Maximum altitude 07:26:14 48° 291° (WNW) 762 3.4 -15.3°
Drops below altitude 10° 07:30:18 10° 6° (N) 1,890 6.5 -14.9°
Sets 07:32:34 0° 13° (NNE) 2,789 7.7 -14.7°
